Regional Weather Roundup
Issued by NWS

Home | Current Version | Previous Version | Graphics & Text | Print | Product List | Glossary On
Versions: 1 2 3 4 5 6 7 8 9 10 11 12 13 14 15 16 17 18 19 20 21 22 23 24 25 26 27 28 29 30 31 32 33 34 35 36 37 38 39 40 41 42 43 44 45 46 47 48 49 50
000
ASUS43 KLOT 270709
RWRIL

ILLINOIS REGIONAL WEATHER ROUNDUP
NATIONAL WEATHER SERVICE CHICAGO/ROMEOVILLE IL
200 AM CDT SAT AUG 27 2016

NOTE: "FAIR" INDICATES FEW OR NO CLOUDS BELOW 12,000 FEET WITH NO
SIGNIFICANT WEATHER AND/OR OBSTRUCTIONS TO VISIBILITY.

* THESE STATIONS ARE NOT UNDER NWS QUALITY CONTROL. THEY ALSO MAY NOT
  REPORT WEATHER SUCH AS PRECIPITATION OR FOG.

ILZ001-002-007-009-015-016-024-270800-
NORTHWEST ILLINOIS

CITY           SKY/WX    TMP DP  RH WIND       PRES   REMARKS
MOLINE         CLOUDY    69  67  93 E10       30.03F
STERLING*      CLOUDY    68  67  96 E6        30.07S
SAVANNA*       LGT RAIN  67  65  96 E5        30.05F
$$

ILZ003-004-008-010-011-017-018-270800-
NORTH CENTRAL ILLINOIS

CITY           SKY/WX    TMP DP  RH WIND       PRES   REMARKS
ROCKFORD       TSTM      64  63  94 NW12      30.12R
FREEPORT*      CLOUDY    63  62  97 E7        30.11F
ROCHELLE*      LGT RAIN  66  64  94 E8        30.08F
DE KALB*       LGT RAIN  65  62  92 E9        30.09F
$$

ILZ005-006-012>014-019>023-270800-
NORTHEAST ILLINOIS

CITY           SKY/WX    TMP DP  RH WIND       PRES   REMARKS
CHICAGO-OHARE  LGT RAIN  70  65  84 E7        30.10F
CHICAGO-MIDWAY LGT RAIN  72  65  78 E9        30.10F
AURORA         LGT RAIN  67  65  93 E6        30.09F
LANSING*       CLOUDY    71  67  88 NE3       30.10F
JOLIET*        MOCLDY    71  69  93 E7        30.08F
WAUKEGAN       LGT RAIN  67  64  90 NE3       30.11F
DUPAGE AIRPORT LGT RAIN  67  63  87 E3        30.09F
KANKAKEE*      CLOUDY    69  67  93 NE3       30.09F
WHEELING       CLOUDY    67  64  90 E3        30.11F
MORRIS*        LGT RAIN  69  67  96 CALM      30.06F
ROMEOVILLE*    MOCLDY    69  69 100 E7        30.09F
NORTHERLY ISL    N/A     70  64  81 NE8         N/A
$$

LMZ740>746-270800-
SOUTHERN LAKE MICHIGAN

STATION/POSITION SKY/WX   TEMP    WIND        PRES    VSBY  WAVE
                          AIR SEA DIR/SP/G                  HT/PER
                          (F)     (DEG/KT/KT) (MB)    (MI)  (FT/S)
SOUTHERN BUOY              72 75   90/ 14/ 16 1019.0F         1/ 3
WILMETTE HARBOR            72 70  120/ 10/ 12   N/A           2/ 3
HARRISON CRIB              73      80/ 11/ 12   N/A
BURNHAM HARBOR             70      50/  7/  9   N/A
CALUMET HARBOR             71      50/  7/  9 1019.3F
BURNS HARBOR               71      70/  4/ 11 1020.3R
MICHIGAN CITY              70      50/  5/  6   N/A
MICHIGAN CITY 6N           72 74   70/ 10/ 12   N/A           2/ 4
ST. JOSEPH                 70 76   60/  8/ 10 1019.6R         1/ 3
$$

ILZ025>027-034>036-040-047-049-050-058-095>099-270800-
WEST-CENTRAL ILLINOIS

CITY           SKY/WX    TMP DP  RH WIND       PRES   REMARKS
QUINCY         TSTM      71  71 100 SE7G20    30.05R FOG
GALESBURG*     RAIN      70  69  98 SE8       30.03F
MACOMB*        TSTM      71  70  99 SE8       30.06F
JACKSONVILLE*  CLOUDY    73  71  95 SE6       30.04F
PITTSFIELD*    CLOUDY    73  72  98 CALM      30.05F
$$

ILZ028>032-037-038-041>044-048-051>054-059>061-270800-
CENTRAL ILLINOIS

CITY           SKY/WX    TMP DP  RH WIND       PRES   REMARKS
PONTIAC        CLOUDY    70  70  99 E6        30.08F
BLOOMINGTON    CLOUDY    70  69  97 E5        30.08
DECATUR        CLOUDY    72  70  93 S3        30.06F
PEORIA         LGT RAIN  71  71 100 CALM      30.05F
LACON*         LGT RAIN  70  68  94 E5        30.06S
LINCOLN*       CLOUDY    71  71  98 CALM      30.06F
SPRINGFIELD    MOCLDY    73  71  93 SE6       30.06F
TAYLORVILLE    CLOUDY    73  71  96 S9        30.07S
$$

ILZ033-039-045-046-055>057-062-063-270800-
EAST-CENTRAL ILLINOIS

CITY           SKY/WX    TMP DP  RH WIND       PRES   REMARKS
CHAMPAIGN      CLOUDY    72  70  93 E7        30.07F
RANTOUL*       PTCLDY    73  72  96 E5        30.07F
MATTOON        CLOUDY    72  70  93 S7        30.06F
PARIS*         CLOUDY    70  70 100 CALM      30.09S
$$

ILZ079-100>102-270800-
SOUTHWEST ILLINOIS

CITY           SKY/WX    TMP DP  RH WIND       PRES   REMARKS
ALTON          MOCLDY    73  71  96 SE7       30.06S
BELLEVILLE     CLOUDY    74  74  99 SE6       30.04F
CAHOKIA*       CLOUDY    76  72  87 S7        30.05R
SPARTA*        CLOUDY    73  70  91 SE3       30.07S
$$

ILZ064>066-069>071-074>076-080>082-084>086-088>090-092>094-270800-
SOUTH-CENTRAL ILLINOIS

CITY           SKY/WX    TMP DP  RH WIND       PRES   REMARKS
CARBONDALE     CLOUDY    72  67  84 CALM      30.05F
CAIRO*         MOCLDY    71  70  97 NE3       30.04F
EFFINGHAM*     TSTM      74  74 100 SW3       30.10F
MARION         CLOUDY    73  70  88 E3        30.07S
MT. VERNON     CLOUDY    73  64  73 S7        30.09S
CENTRALIA*     CLOUDY    74  69  83 S7        30.06F
SALEM*         CLOUDY    75  68  78 S6        30.07F
METROPOLIS*    CLOUDY    72  71  96 CALM      30.05F
$$

ILZ067-068-072-073-078-083-087-091-270800-
SOUTHEAST ILLINOIS

CITY           SKY/WX    TMP DP  RH WIND       PRES   REMARKS
LAWRENCEVILLE  CLOUDY    76  74  93 S5        30.10R
FLORA*         CLOUDY    74  71  91 SW6       30.09S
FAIRFIELD*     MOCLDY    72  70  93 CALM      30.08S
HARRISBURG*    LGT RAIN  72  71  97 SE3       30.07F
ROBINSON*      CLOUDY    73  72  96 SW5       30.11R
CARMI*         RAIN      72  72  99 SE8       30.09S
$$

ABBREVIATIONS USED IN REMARKS
   TC - TEMPERATURE IN CELSIUS
  WCI - WIND CHILL INDEX
   HX - HEAT INDEX
  VSB - VISIBILITY
$$





USA.gov is the U.S. government's official web portal to all federal, state and local government web resources and services.